Time,TemperatureF,DewpointF,PressureIn,WindDirection,WindDirectionDegrees,WindSpeedMPH,WindSpeedGustMPH,Humidity,HourlyPrecipIn,Conditions,Clouds,dailyrainin,SolarRadiationWatts/m^2,SoftwareType,DateUTC
2013-06-02 00:02:00,75.0,73.0,-100.00,South,185,0.0,3.0,92,0.00,,,0.00,0.000000,,2013-06-02 05:02:00,
2013-06-02 00:32:00,75.0,73.0,-100.00,SW,225,1.0,5.0,94,0.00,,,0.00,0.000000,,2013-06-02 05:32:00,
2013-06-02 00:42:00,75.0,73.0,-100.00,SW,225,1.0,5.0,94,0.00,,,0.00,0.000000,,2013-06-02 05:42:00,
2013-06-02 00:52:00,75.0,73.0,-100.00,SW,225,1.0,5.0,94,0.00,,,0.00,0.000000,,2013-06-02 05:52:00,
2013-06-02 01:01:00,75.0,73.0,-100.00,SW,225,1.0,5.0,94,0.00,,,0.00,0.000000,,2013-06-02 06:01:00,
2013-06-02 01:32:00,75.0,73.0,-100.00,South,174,0.0,3.0,94,0.00,,,0.00,0.000000,,2013-06-02 06:32:00,
2013-06-02 01:42:00,75.0,73.0,-100.00,South,174,0.0,3.0,94,0.00,,,0.00,0.000000,,2013-06-02 06:42:00,
2013-06-02 01:52:00,75.0,73.0,-100.00,South,174,0.0,3.0,94,0.00,,,0.00,0.000000,,2013-06-02 06:52:00,
2013-06-02 02:01:00,75.0,73.0,-100.00,South,174,0.0,3.0,94,0.00,,,0.00,0.000000,,2013-06-02 07:01:00,
2013-06-02 02:32:00,74.0,72.0,-100.00,SSW,208,0.0,4.0,94,0.00,,,0.00,0.000000,,2013-06-02 07:32:00,
2013-06-02 02:42:00,74.0,72.0,-100.00,SSW,208,0.0,4.0,94,0.00,,,0.00,0.000000,,2013-06-02 07:42:00,
2013-06-02 02:52:00,74.0,72.0,-100.00,SSW,208,0.0,4.0,94,0.00,,,0.00,0.000000,,2013-06-02 07:52:00,
2013-06-02 03:01:00,74.0,72.0,-100.00,SSW,208,0.0,4.0,94,0.00,,,0.00,0.000000,,2013-06-02 08:01:00,
2013-06-02 03:32:00,73.0,71.0,-100.00,SSW,213,0.0,2.0,95,0.00,,,0.00,0.000000,,2013-06-02 08:32:00,
2013-06-02 03:42:00,73.0,71.0,-100.00,SSW,213,0.0,2.0,95,0.00,,,0.00,0.000000,,2013-06-02 08:42:00,
2013-06-02 03:52:00,73.0,71.0,-100.00,SSW,213,0.0,2.0,95,0.00,,,0.00,0.000000,,2013-06-02 08:52:00,
2013-06-02 04:01:00,73.0,71.0,-100.00,SSW,213,0.0,2.0,95,0.00,,,0.00,0.000000,,2013-06-02 09:01:00,
2013-06-02 04:33:00,74.0,72.0,-100.00,North,10,1.0,4.0,95,0.00,,,0.00,0.000000,,2013-06-02 09:33:00,
2013-06-02 04:43:00,74.0,72.0,-100.00,North,10,1.0,4.0,95,0.00,,,0.00,0.000000,,2013-06-02 09:43:00,
2013-06-02 04:53:00,74.0,72.0,-100.00,North,10,1.0,4.0,95,0.00,,,0.00,0.000000,,2013-06-02 09:53:00,
2013-06-02 05:02:00,74.0,72.0,-100.00,North,10,1.0,4.0,95,0.00,,,0.00,0.000000,,2013-06-02 10:02:00,
2013-06-02 05:33:00,67.0,66.0,-100.00,ENE,65,4.0,23.0,95,0.34,,,0.34,0.000000,,2013-06-02 10:33:00,
2013-06-02 05:42:00,67.0,66.0,-100.00,ENE,65,4.0,23.0,95,0.34,,,0.34,0.000000,,2013-06-02 10:42:00,
2013-06-02 05:52:00,67.0,66.0,-100.00,ENE,65,4.0,23.0,95,0.34,,,0.34,0.000000,,2013-06-02 10:52:00,
2013-06-02 06:02:00,67.0,66.0,-100.00,ENE,65,4.0,23.0,95,0.34,,,0.34,0.000000,,2013-06-02 11:02:00,
2013-06-02 06:32:00,66.0,65.0,-100.00,East,83,3.0,7.0,95,0.15,,,0.49,1.000000,,2013-06-02 11:32:00,
2013-06-02 06:42:00,66.0,65.0,-100.00,East,83,3.0,7.0,95,0.15,,,0.49,1.000000,,2013-06-02 11:42:00,
2013-06-02 06:52:00,66.0,65.0,-100.00,East,83,3.0,7.0,95,0.15,,,0.49,1.000000,,2013-06-02 11:52:00,
2013-06-02 07:01:00,66.0,65.0,-100.00,East,83,3.0,7.0,95,0.15,,,0.49,1.000000,,2013-06-02 12:01:00,
2013-06-02 07:32:00,67.0,66.0,-100.00,SE,142,1.0,5.0,96,0.02,,,0.51,14.000000,,2013-06-02 12:32:00,
2013-06-02 07:42:00,67.0,66.0,-100.00,SE,142,1.0,5.0,96,0.02,,,0.51,14.000000,,2013-06-02 12:42:00,
2013-06-02 07:52:00,67.0,66.0,-100.00,SE,142,1.0,5.0,96,0.02,,,0.51,14.000000,,2013-06-02 12:52:00,
2013-06-02 08:01:00,67.0,66.0,-100.00,SE,142,1.0,5.0,96,0.02,,,0.51,14.000000,,2013-06-02 13:01:00,
2013-06-02 08:32:00,69.0,68.0,-100.00,South,181,1.0,4.0,95,0.00,,,0.51,84.000000,,2013-06-02 13:32:00,
2013-06-02 08:42:00,69.0,68.0,-100.00,South,181,1.0,4.0,95,0.00,,,0.51,84.000000,,2013-06-02 13:42:00,
2013-06-02 08:52:00,69.0,68.0,-100.00,South,181,1.0,4.0,95,0.00,,,0.51,84.000000,,2013-06-02 13:52:00,
2013-06-02 09:02:00,69.0,68.0,-100.00,South,181,1.0,4.0,95,0.00,,,0.51,84.000000,,2013-06-02 14:02:00,
2013-06-02 09:32:00,70.0,68.0,-100.00,SSW,210,2.0,6.0,94,0.01,,,0.52,121.000000,,2013-06-02 14:32:00,
2013-06-02 09:42:00,70.0,68.0,-100.00,SSW,210,2.0,6.0,94,0.01,,,0.52,121.000000,,2013-06-02 14:42:00,
2013-06-02 09:52:00,70.0,68.0,-100.00,SSW,210,2.0,6.0,94,0.01,,,0.52,121.000000,,2013-06-02 14:52:00,
2013-06-02 10:01:00,70.0,68.0,-100.00,SSW,210,2.0,6.0,94,0.01,,,0.52,121.000000,,2013-06-02 15:01:00,
2013-06-02 10:33:00,72.0,69.0,-100.00,SW,215,3.0,8.0,91,0.00,,,0.52,207.000000,,2013-06-02 15:33:00,
2013-06-02 10:43:00,72.0,69.0,-100.00,SW,215,3.0,8.0,91,0.00,,,0.52,207.000000,,2013-06-02 15:43:00,
2013-06-02 10:53:00,72.0,69.0,-100.00,SW,215,3.0,8.0,91,0.00,,,0.52,207.000000,,2013-06-02 15:53:00,
2013-06-02 11:03:00,72.0,69.0,-100.00,SW,215,3.0,8.0,91,0.00,,,0.52,207.000000,,2013-06-02 16:03:00,
2013-06-02 11:33:00,76.0,71.0,-100.00,South,183,1.0,6.0,85,0.00,,,0.52,241.000000,,2013-06-02 16:33:00,
2013-06-02 11:42:00,76.0,71.0,-100.00,South,183,1.0,6.0,85,0.00,,,0.52,241.000000,,2013-06-02 16:42:00,
2013-06-02 11:53:00,76.0,71.0,-100.00,South,183,1.0,6.0,85,0.00,,,0.52,241.000000,,2013-06-02 16:53:00,
2013-06-02 12:02:00,76.0,71.0,-100.00,South,183,1.0,6.0,85,0.00,,,0.52,241.000000,,2013-06-02 17:02:00,
2013-06-02 12:32:00,81.0,71.0,-100.00,West,278,3.0,7.0,71,0.00,,,0.52,544.000000,,2013-06-02 17:32:00,
2013-06-02 12:42:00,81.0,71.0,-100.00,West,278,3.0,7.0,71,0.00,,,0.52,544.000000,,2013-06-02 17:42:00,
2013-06-02 12:52:00,81.0,71.0,-100.00,West,278,3.0,7.0,71,0.00,,,0.52,544.000000,,2013-06-02 17:52:00,
2013-06-02 13:01:00,81.0,71.0,-100.00,West,278,3.0,7.0,71,0.00,,,0.52,544.000000,,2013-06-02 18:01:00,
2013-06-02 13:32:00,86.0,70.0,-100.00,SSW,198,1.0,8.0,59,0.00,,,0.52,793.000000,,2013-06-02 18:32:00,
2013-06-02 13:42:00,86.0,70.0,-100.00,SSW,198,1.0,8.0,59,0.00,,,0.52,793.000000,,2013-06-02 18:42:00,
2013-06-02 13:52:00,86.0,70.0,-100.00,SSW,198,1.0,8.0,59,0.00,,,0.52,793.000000,,2013-06-02 18:52:00,
2013-06-02 14:01:00,86.0,70.0,-100.00,SSW,198,1.0,8.0,59,0.00,,,0.52,793.000000,,2013-06-02 19:01:00,
2013-06-02 14:32:00,88.0,69.0,-100.00,WNW,293,3.0,8.0,54,0.00,,,0.52,809.000000,,2013-06-02 19:32:00,
2013-06-02 14:42:00,88.0,69.0,-100.00,WNW,293,3.0,8.0,54,0.00,,,0.52,809.000000,,2013-06-02 19:42:00,
2013-06-02 14:52:00,88.0,69.0,-100.00,WNW,293,3.0,8.0,54,0.00,,,0.52,809.000000,,2013-06-02 19:52:00,
2013-06-02 15:02:00,88.0,69.0,-100.00,WNW,293,3.0,8.0,54,0.00,,,0.52,809.000000,,2013-06-02 20:02:00,
2013-06-02 15:32:00,86.0,73.0,-100.00,North,5,6.0,11.0,65,0.00,,,0.52,631.000000,,2013-06-02 20:32:00,
2013-06-02 15:42:00,86.0,73.0,-100.00,North,5,6.0,11.0,65,0.00,,,0.52,631.000000,,2013-06-02 20:42:00,
2013-06-02 15:52:00,86.0,73.0,-100.00,North,5,6.0,11.0,65,0.00,,,0.52,631.000000,,2013-06-02 20:52:00,
2013-06-02 16:01:00,86.0,73.0,-100.00,North,5,6.0,11.0,65,0.00,,,0.52,631.000000,,2013-06-02 21:01:00,
2013-06-02 16:33:00,84.0,71.0,-100.00,North,9,4.0,11.0,65,0.00,,,0.52,463.000000,,2013-06-02 21:33:00,
2013-06-02 16:43:00,84.0,71.0,-100.00,North,9,4.0,11.0,65,0.00,,,0.52,463.000000,,2013-06-02 21:43:00,
2013-06-02 16:53:00,84.0,71.0,-100.00,North,9,4.0,11.0,65,0.00,,,0.52,463.000000,,2013-06-02 21:53:00,
2013-06-02 17:03:00,84.0,71.0,-100.00,North,9,4.0,11.0,65,0.00,,,0.52,463.000000,,2013-06-02 22:03:00,
2013-06-02 17:33:00,84.0,71.0,-100.00,North,356,3.0,8.0,66,0.00,,,0.52,226.000000,,2013-06-02 22:33:00,
2013-06-02 17:42:00,84.0,71.0,-100.00,North,356,3.0,8.0,66,0.00,,,0.52,226.000000,,2013-06-02 22:42:00,
2013-06-02 17:53:00,84.0,71.0,-100.00,North,356,3.0,8.0,66,0.00,,,0.52,226.000000,,2013-06-02 22:53:00,
2013-06-02 18:02:00,84.0,71.0,-100.00,North,356,3.0,8.0,66,0.00,,,0.52,226.000000,,2013-06-02 23:02:00,
2013-06-02 18:32:00,82.0,69.0,-100.00,North,10,4.0,8.0,66,0.00,,,0.52,242.000000,,2013-06-02 23:32:00,
2013-06-02 18:42:00,82.0,69.0,-100.00,North,10,4.0,8.0,66,0.00,,,0.52,242.000000,,2013-06-02 23:42:00,
2013-06-02 18:52:00,82.0,69.0,-100.00,North,10,4.0,8.0,66,0.00,,,0.52,242.000000,,2013-06-02 23:52:00,
2013-06-02 19:01:00,82.0,69.0,-100.00,North,10,4.0,8.0,66,0.00,,,0.52,242.000000,,2013-06-03 00:01:00,
2013-06-02 19:32:00,78.0,70.0,-100.00,East,99,0.0,8.0,77,0.00,,,0.52,79.000000,,2013-06-03 00:32:00,
2013-06-02 19:42:00,78.0,70.0,-100.00,East,99,0.0,8.0,77,0.00,,,0.52,79.000000,,2013-06-03 00:42:00,
2013-06-02 19:52:00,78.0,70.0,-100.00,East,99,0.0,8.0,77,0.00,,,0.52,79.000000,,2013-06-03 00:52:00,
2013-06-02 20:01:00,78.0,70.0,-100.00,East,99,0.0,8.0,77,0.00,,,0.52,79.000000,,2013-06-03 01:01:00,
2013-06-02 20:32:00,74.0,70.0,-100.00,West,268,0.0,0.0,88,0.00,,,0.52,12.000000,,2013-06-03 01:32:00,
2013-06-02 20:42:00,74.0,70.0,-100.00,West,268,0.0,0.0,88,0.00,,,0.52,12.000000,,2013-06-03 01:42:00,
2013-06-02 20:52:00,74.0,70.0,-100.00,West,268,0.0,0.0,88,0.00,,,0.52,12.000000,,2013-06-03 01:52:00,
2013-06-02 21:02:00,74.0,70.0,-100.00,West,268,0.0,0.0,88,0.00,,,0.52,12.000000,,2013-06-03 02:02:00,
2013-06-02 21:32:00,73.0,70.0,-100.00,SW,224,0.0,0.0,91,0.00,,,0.52,1.000000,,2013-06-03 02:32:00,
2013-06-02 21:42:00,73.0,70.0,-100.00,SW,224,0.0,0.0,91,0.00,,,0.52,1.000000,,2013-06-03 02:42:00,
2013-06-02 21:52:00,73.0,70.0,-100.00,SW,224,0.0,0.0,91,0.00,,,0.52,1.000000,,2013-06-03 02:52:00,
2013-06-02 22:02:00,73.0,70.0,-100.00,SW,224,0.0,0.0,91,0.00,,,0.52,1.000000,,2013-06-03 03:02:00,
2013-06-02 22:33:00,72.0,70.0,-100.00,SSE,155,0.0,1.0,92,0.00,,,0.52,0.000000,,2013-06-03 03:33:00,
2013-06-02 22:43:00,72.0,70.0,-100.00,SSE,155,0.0,1.0,92,0.00,,,0.52,0.000000,,2013-06-03 03:43:00,
2013-06-02 22:53:00,72.0,70.0,-100.00,SSE,155,0.0,1.0,92,0.00,,,0.52,0.000000,,2013-06-03 03:53:00,
2013-06-02 23:03:00,72.0,70.0,-100.00,SSE,155,0.0,1.0,92,0.00,,,0.52,0.000000,,2013-06-03 04:03:00,
2013-06-02 23:33:00,72.0,70.0,-100.00,NW,313,0.0,0.0,92,0.00,,,0.52,0.000000,,2013-06-03 04:33:00,
2013-06-02 23:42:00,72.0,70.0,-100.00,NW,313,0.0,0.0,92,0.00,,,0.52,0.000000,,2013-06-03 04:42:00,
2013-06-02 23:53:00,72.0,70.0,-100.00,NW,313,0.0,0.0,92,0.00,,,0.52,0.000000,,2013-06-03 04:53:00,